User: anonymous   Login
Location: Unspecified
(43.4680°N, 87.1740°E)
Time: 22:56:14
(UTC+00:00)
Language:

Cosmos 2058 - Orbit

View from above orbital plane
View from above orbital plane
View from above satellite
View from above satellite

Ground track
Ground track

The orbit data is extracted from the following two-line orbital elements,

1 20465U 90010A   21172.54529797  .00000191  00000-0  13737-4 0  9994
2 20465  82.4897 278.1238 0016319  41.5856 318.6605 14.98224614683587
Epoch (UTC): 21 June 2021 13:05:13
Eccentricity: 0.0016319
inclination: 82.4897°
perigee height: 561 km
apogee height: 584 km
right ascension of ascending node: 278.1238°
argument of perigee: 41.5856°
revolutions per day: 14.98224614
mean anomaly at epoch: 318.6605°
orbit number at epoch: 68358

The dashed part of the orbit path shows where the satellite is in the earth's shadow,  

DLR